TimeCDT,TemperatureF,Dew PointF,Humidity,Sea Level PressureIn,VisibilityMPH,Wind Direction,Wind SpeedMPH,Gust SpeedMPH,PrecipitationIn,Events,Conditions,WindDirDegrees,DateUTC
12:56 AM,51.1,45.0,80,29.78,10.0,WSW,8.1,-,N/A,,Overcast,240,2013-10-16 05:56:00
1:42 AM,50.0,46.4,87,29.79,10.0,WSW,6.9,-,N/A,,Overcast,240,2013-10-16 06:42:00
1:56 AM,50.0,46.0,86,29.78,10.0,WSW,8.1,-,N/A,,Overcast,240,2013-10-16 06:56:00
2:56 AM,50.0,46.9,89,29.77,10.0,WSW,4.6,-,N/A,,Overcast,240,2013-10-16 07:56:00
3:56 AM,50.0,46.9,89,29.77,10.0,West,8.1,-,N/A,,Overcast,260,2013-10-16 08:56:00
4:09 AM,50.0,46.4,87,29.78,10.0,WSW,6.9,-,N/A,,Overcast,250,2013-10-16 09:09:00
4:56 AM,50.0,46.9,89,29.78,10.0,West,5.8,-,N/A,,Overcast,260,2013-10-16 09:56:00
5:23 AM,50.0,48.2,94,29.79,7.0,West,5.8,-,N/A,,Overcast,260,2013-10-16 10:23:00
5:47 AM,50.0,48.2,94,29.80,10.0,West,5.8,-,N/A,,Overcast,270,2013-10-16 10:47:00
5:56 AM,50.0,48.0,93,29.79,8.0,West,6.9,-,N/A,,Overcast,270,2013-10-16 10:56:00
6:26 AM,50.0,48.2,94,29.80,7.0,WSW,5.8,-,N/A,,Overcast,250,2013-10-16 11:26:00
6:40 AM,50.0,48.2,94,29.81,9.0,West,5.8,-,N/A,,Overcast,260,2013-10-16 11:40:00
6:56 AM,50.0,48.0,93,29.80,8.0,West,4.6,-,N/A,,Overcast,270,2013-10-16 11:56:00
7:28 AM,50.0,48.2,94,29.82,3.0,West,4.6,-,N/A,,Overcast,270,2013-10-16 12:28:00
7:44 AM,50.0,48.2,94,29.82,2.5,West,5.8,-,N/A,,Overcast,270,2013-10-16 12:44:00
7:53 AM,50.0,48.2,94,29.82,4.0,West,4.6,-,N/A,,Overcast,260,2013-10-16 12:53:00
7:56 AM,50.0,48.9,96,29.81,6.0,West,5.8,-,N/A,,Overcast,270,2013-10-16 12:56:00
8:56 AM,52.0,48.9,89,29.83,10.0,WNW,10.4,-,N/A,,Overcast,290,2013-10-16 13:56:00
9:56 AM,52.0,46.9,83,29.85,10.0,WNW,10.4,-,N/A,,Overcast,300,2013-10-16 14:56:00
10:56 AM,52.0,46.0,80,29.86,10.0,NW,11.5,-,N/A,,Overcast,310,2013-10-16 15:56:00
11:24 AM,51.8,46.4,82,29.88,10.0,WNW,10.4,-,N/A,,Overcast,300,2013-10-16 16:24:00
11:47 AM,51.8,46.4,82,29.88,10.0,WNW,8.1,-,N/A,,Overcast,300,2013-10-16 16:47:00
11:56 AM,51.1,46.0,83,29.88,10.0,WNW,9.2,-,N/A,,Overcast,290,2013-10-16 16:56:00
12:56 PM,52.0,46.0,80,29.88,10.0,West,10.4,-,N/A,,Overcast,280,2013-10-16 17:56:00
1:56 PM,52.0,45.0,77,29.87,10.0,WNW,8.1,-,N/A,,Overcast,290,2013-10-16 18:56:00
2:56 PM,51.1,46.0,83,29.88,10.0,WNW,8.1,-,N/A,,Overcast,290,2013-10-16 19:56:00
3:56 PM,50.0,46.0,86,29.89,10.0,West,10.4,-,N/A,,Overcast,270,2013-10-16 20:56:00
4:56 PM,50.0,46.0,86,29.89,5.0,WNW,6.9,-,N/A,,Overcast,290,2013-10-16 21:56:00
5:08 PM,48.2,46.4,93,29.90,4.0,WNW,5.8,-,0.00,Rain,Light Rain,300,2013-10-16 22:08:00
5:18 PM,50.0,46.4,87,29.90,9.0,WNW,6.9,-,0.00,,Overcast,300,2013-10-16 22:18:00
5:32 PM,48.2,46.4,93,29.90,5.0,WNW,5.8,-,0.00,,Overcast,290,2013-10-16 22:32:00
5:41 PM,48.2,46.4,93,29.90,8.0,West,5.8,-,0.00,,Overcast,270,2013-10-16 22:41:00
5:56 PM,48.9,46.0,90,29.90,9.0,West,5.8,-,0.00,,Overcast,280,2013-10-16 22:56:00
6:56 PM,48.9,46.0,90,29.91,10.0,WNW,3.5,-,N/A,,Overcast,300,2013-10-16 23:56:00
7:05 PM,48.2,46.4,93,29.92,10.0,West,4.6,-,N/A,,Overcast,280,2013-10-17 00:05:00
7:56 PM,48.9,46.0,90,29.92,10.0,West,3.5,-,N/A,,Overcast,280,2013-10-17 00:56:00
8:56 PM,48.9,45.0,86,29.93,10.0,WNW,3.5,-,N/A,,Overcast,300,2013-10-17 01:56:00
9:56 PM,48.9,46.0,90,29.94,10.0,Calm,Calm,-,N/A,,Overcast,0,2013-10-17 02:56:00
10:56 PM,48.9,46.0,90,29.94,10.0,Calm,Calm,-,N/A,,Overcast,0,2013-10-17 03:56:00
11:56 PM,48.9,46.0,90,29.93,10.0,Calm,Calm,-,N/A,,Overcast,0,2013-10-17 04:56:00